Weather History for Oxford, CT

Change the Weather History Date:

Saturday, May 18, 2013

  Actual Average Record
Temperature  
Mean Temperature 54 °F -  
Max Temperature 66 °F 62 °F 78 °F (1998)
Min Temperature 42 °F 45 °F 35 °F (2003)
Degree Days  
Heating Degree Days 11    
Growing Degree Days 4 (Base 50)    
Moisture  
Dew Point 41 °F    
Average Humidity 69    
Maximum Humidity 82    
Minimum Humidity 46    
Precipitation  
Precipitation 0.00 in - - ()
Sea Level Pressure  
Sea Level Pressure 30.29 in    
Wind  
Wind Speed 2 mph (South)    
Max Wind Speed 9 mph    
Max Gust Speed 18 mph    
Visibility 10 miles    
Events      
Averages and records for this station are not official NWS values.
T = Trace of Precipitation, MM = Missing Value Source: NWS Daily Summary

Daily Weather History Graph

Daily Weather History Graph

Search for Another Location

Airport:

Trip Planner

Search our weather history database for the weather conditions in past years. The results will help you decide how hot, cold, wet, or windy it might be!

Date:

Astronomy

May. 18, 2013 Rise Set
Actual Time 5:30 AM EDT 8:08 PM EDT
Civil Twilight 4:58 AM EDT 8:40 PM EDT
Nautical Twilight 4:18 AM EDT 9:20 PM EDT
Astronomical Twilight 3:33 AM EDT 10:05 PM EDT
Moon 1:03 PM EDT (5/18) 1:26 AM EDT (5/18)
Length of Visible Light 15h 41m
Length of Day
14h 37m
First Quarter, 55% of the Moon is Illuminated
May 18
First Quarter
May 25
Full
May 31
Last Quarter
Jun 8
New
Jun 16
First Quarter

Hourly Weather History & Observations

Time (EDT) Temp. Windchill Dew Point Humidity Pressure Visibility Wind Dir Wind Speed Gust Speed Precip Events Conditions
12:15 AM 48.2 °F - 37.4 °F 66% 30.23 in 10.0 mi North 3.5 mph - N/A   Clear
12:35 AM 46.4 °F - 35.6 °F 66% 30.23 in 10.0 mi Calm Calm - N/A   Clear
12:55 AM 46.4 °F - 37.4 °F 71% 30.24 in 10.0 mi Calm Calm - N/A   Clear
1:15 AM 48.2 °F - 37.4 °F 66% 30.24 in 10.0 mi Calm Calm - N/A   Clear
1:35 AM 46.4 °F 45.2 °F 37.4 °F 71% 30.24 in 10.0 mi ENE 3.5 mph - N/A   Clear
1:55 AM 46.4 °F - 37.4 °F 71% 30.24 in 10.0 mi Calm Calm - N/A   Clear
2:15 AM 46.4 °F - 37.4 °F 71% 30.23 in 10.0 mi Calm Calm - N/A   Clear
2:35 AM 44.6 °F 43.1 °F 35.6 °F 71% 30.23 in 10.0 mi East 3.5 mph - N/A   Clear
2:55 AM 46.4 °F - 37.4 °F 71% 30.24 in 10.0 mi Calm Calm - N/A   Clear
3:15 AM 46.4 °F - 37.4 °F 71% 30.24 in 10.0 mi Calm Calm - N/A   Clear
3:35 AM 46.4 °F - 37.4 °F 71% 30.25 in 10.0 mi Calm Calm - N/A   Clear
3:55 AM 44.6 °F 43.1 °F 35.6 °F 71% 30.25 in 10.0 mi North 3.5 mph - N/A   Clear
4:15 AM 44.6 °F 43.1 °F 37.4 °F 76% 30.25 in 10.0 mi NNE 3.5 mph - N/A   Clear
4:35 AM 42.8 °F - 35.6 °F 76% 30.26 in 10.0 mi Calm Calm - N/A   Clear
4:55 AM 42.8 °F - 37.4 °F 81% 30.26 in 10.0 mi Calm Calm - N/A   Clear
5:15 AM 42.8 °F - 37.4 °F 81% 30.27 in 10.0 mi Calm Calm - N/A   Clear
5:35 AM 42.8 °F - 35.6 °F 76% 30.27 in 10.0 mi Calm Calm - N/A   Partly Cloudy
5:45 AM 42.8 °F - 35.6 °F 76% 30.27 in 10.0 mi Calm Calm - N/A   Scattered Clouds
6:45 AM 46.4 °F - 39.2 °F 76% 30.29 in 10.0 mi Calm Calm - N/A   Partly Cloudy
7:45 AM 55.4 °F - 42.8 °F 63% 30.31 in 10.0 mi Calm Calm - N/A   Scattered Clouds
8:50 AM 57.2 °F - 44.6 °F 63% 30.32 in 10.0 mi Calm Calm - N/A   Partly Cloudy
9:45 AM 60.8 °F - 46.4 °F 59% 30.32 in 10.0 mi Variable 4.6 mph - N/A   Scattered Clouds
10:45 AM 62.6 °F - 46.4 °F 55% 30.32 in 10.0 mi SSW 8.1 mph - N/A   Partly Cloudy
11:45 AM 64.4 °F - 48.2 °F 56% 30.32 in 10.0 mi South 6.9 mph - N/A   Clear
12:45 PM 66.2 °F - 48.2 °F 52% 30.30 in 10.0 mi South 6.9 mph - N/A   Scattered Clouds
1:45 PM 66.2 °F - 44.6 °F 46% 30.30 in 10.0 mi South 9.2 mph - N/A   Mostly Cloudy
3:45 PM 64.4 °F - 46.4 °F 52% 30.29 in 10.0 mi SSW 9.2 mph 18.4 mph N/A   Scattered Clouds
4:45 PM 62.6 °F - 46.4 °F 55% 30.30 in 10.0 mi SW 9.2 mph 15.0 mph N/A   Mostly Cloudy
6:45 PM 59.0 °F - 44.6 °F 59% 30.31 in 10.0 mi WSW 5.8 mph 13.8 mph N/A   Clear
7:45 PM 57.2 °F - 44.6 °F 63% 30.33 in 10.0 mi SW 6.9 mph - N/A   Clear
8:55 PM 53.6 °F - 42.8 °F 67% 30.32 in 10.0 mi Calm Calm - N/A   Clear
9:15 PM 51.8 °F - 42.8 °F 71% 30.32 in 10.0 mi Calm Calm - N/A   Clear
9:35 PM 50.0 °F - 42.8 °F 76% 30.32 in 10.0 mi South 3.5 mph - N/A   Clear
9:55 PM 50.0 °F - 42.8 °F 76% 30.33 in 10.0 mi South 3.5 mph - N/A   Clear
10:15 PM 51.8 °F - 44.6 °F 76% 30.34 in 10.0 mi SSE 3.5 mph - N/A   Clear
10:35 PM 51.8 °F - 44.6 °F 76% 30.33 in 10.0 mi Calm Calm - N/A   Clear
10:55 PM 50.0 °F - 44.6 °F 82% 30.33 in 10.0 mi Calm Calm - N/A   Scattered Clouds
11:15 PM 51.8 °F - 46.4 °F 82% 30.33 in 10.0 mi SSW 3.5 mph - N/A   Overcast
11:35 PM 51.8 °F - 46.4 °F 82% 30.32 in 10.0 mi SSW 3.5 mph - N/A   Overcast
11:55 PM 51.8 °F - 46.4 °F 82% 30.32 in 10.0 mi SSW 3.5 mph - N/A   Overcast